Location: Le Vaud
(46.4779°N, 6.2346°E)
Time: 20:11:31
(UTC+00:00)

Cosmos 1805 Rocket - Pass Details

Date: 18 February 2020
Orbit: 607 x 629 km, 82.5° (Epoch: 07 April)

Event Time Altitude Azimuth Distance (km) Brightness Sun altitude
Rises 05:04:37 0° 351° (N) 2,879 6.9 -16.2°
Reaches altitude 10° 05:06:51 10° 352° (N) 1,969 6.0 -15.8°
Maximum altitude 05:11:12 84° 80° (E) 617 3.5 -15.0°
Drops below altitude 10° 05:15:32 10° 170° (S) 1,953 6.3 -14.3°
Sets 05:17:44 0° 171° (S) 2,854 7.1 -13.9°
